Location: Passo di Treia
(43.2833°N, 13.3333°E)
Time: 21:00:08
(UTC+00:00)

Cosmos 2237 Rocket - Pass Details

Date: 09 December 2019
Orbit: 836 x 849 km, 71.0° (Epoch: 26 January)

Event Time Altitude Azimuth Distance (km) Brightness Sun altitude
Rises 16:01:06 0° 180° (S) 3,396 5.7 -5.6°
Reaches altitude 10° 16:03:40 10° 173° (S) 2,465 4.9 -6.1°
Maximum altitude 16:08:53 39° 106° (ESE) 1,243 2.8 -6.9°
Drops below altitude 10° 16:14:08 10° 39° (NE) 2,479 4.1 -7.8°
Enters shadow 16:15:22 - 35° (NE) 2,921 4.5 -8.0°
